Viroqua, WI

6:57 AM CST on November 13, 2019 (GMT -0600)
Viroqua

Weather History for KY51 - October, 2019

Change the Weather History Date:

Wednesday, October 23, 2019

  Actual Average (WUND) Record (WUND)
Temperature  
Mean Temperature 40 °F -  
Max Temperature 49 °F - - (-1)
Min Temperature 32 °F - - (-1)
Degree Days  
Heating Degree Days 24    
Moisture  
Dew Point 34 °F    
Average Humidity 82    
Maximum Humidity 100    
Minimum Humidity 49    
Precipitation  
Precipitation 0.04 in - - ()
Sea Level Pressure  
Sea Level Pressure 29.88 in    
Wind  
Wind Speed 8 mph ()    
Max Wind Speed 14 mph    
Max Gust Speed 22 mph    
Visibility 9.9 miles    
Events      
Averages and records for this station are not official NWS values.
T = Trace of Precipitation, MM = Missing Value Source: Averaged Metar Reports

Daily Weather History Graph

Daily Weather History Graph

Search for Another Location

Airport or City:

Astronomy

Oct. 23, 2019 Rise Set
Actual Time 7:27 AM CDT 6:07 PM CDT
Civil Twilight 6:58 AM CDT 6:36 PM CDT
Nautical Twilight 6:24 AM CDT 7:10 PM CDT
Astronomical Twilight 5:51 AM CDT 7:43 PM CDT
Moon 1:32 AM CDT (10/23) 4:10 PM CDT (10/23)
Length of Visible Light 11h 38m
Length of Day
10h 40m
Waning Crescent, 26% of the Moon is Illuminated
Oct 23
Waning Crescent
Oct 27
New
Nov 4
First Quarter
Nov 12
Full
Nov 19
Last Quarter

Hourly Weather History & Observations

Time (CDT) Temp. Windchill Dew Point Humidity Pressure Visibility Wind Dir Wind Speed Gust Speed Precip Events Conditions
12:35 AM 42.8 °F 37.5 °F 32.5 °F 67% 29.71 in 10.0 mi West 9.2 mph 21.9 mph N/A   Overcast
12:55 AM 42.3 °F 35.9 °F 32.4 °F 68% 29.71 in 10.0 mi West 11.5 mph 16.1 mph N/A   Overcast
1:15 AM 42.1 °F 36.6 °F 32.5 °F 69% 29.71 in 10.0 mi West 9.2 mph - N/A   Overcast
1:35 AM 41.0 °F 35.2 °F 32.4 °F 71% 29.72 in 10.0 mi West 9.2 mph 17.3 mph N/A   Overcast
1:55 AM 39.6 °F 33.5 °F 32.5 °F 76% 29.72 in 10.0 mi WSW 9.2 mph - N/A   Scattered Clouds
2:35 AM 37.6 °F 31.6 °F 32.5 °F 82% 29.72 in 10.0 mi WSW 8.1 mph - N/A   Clear
2:55 AM 36.7 °F 29.9 °F 32.5 °F 85% 29.73 in 10.0 mi WSW 9.2 mph - N/A   Clear
3:15 AM 36.1 °F 28.7 °F 32.4 °F 86% 29.73 in 10.0 mi WSW 10.4 mph - N/A   Clear
3:35 AM 36.5 °F 29.2 °F 32.5 °F 86% 29.74 in 10.0 mi West 10.4 mph - N/A   Clear
3:55 AM 36.1 °F 27.3 °F 32.4 °F 86% 29.75 in 10.0 mi West 13.8 mph 17.3 mph N/A   Clear
4:15 AM 35.8 °F 28.3 °F 32.4 °F 87% 29.75 in 10.0 mi West 10.4 mph - N/A   Clear
4:35 AM 35.6 °F 27.5 °F 32.4 °F 88% 29.76 in 10.0 mi West 11.5 mph - N/A   Clear
4:55 AM 35.2 °F 27.1 °F 32.2 °F 89% 29.77 in 10.0 mi WSW 11.5 mph - N/A   Clear
5:15 AM 35.1 °F 26.9 °F 32.2 °F 89% 29.77 in 10.0 mi WSW 11.5 mph 17.3 mph N/A   Clear
5:35 AM 34.9 °F 26.2 °F 32.2 °F 90% 29.78 in 10.0 mi WSW 12.7 mph - N/A   Clear
5:55 AM 34.3 °F 25.9 °F 32.0 °F 91% 29.79 in 10.0 mi WSW 11.5 mph - N/A   Clear
6:15 AM 34.2 °F 26.2 °F 32.0 °F 92% 29.80 in 10.0 mi WSW 10.4 mph - N/A   Clear
6:35 AM 33.8 °F 27.0 °F 32.0 °F 93% 29.80 in 10.0 mi WSW 8.1 mph - N/A   Clear
6:55 AM 33.4 °F 25.9 °F 32.0 °F 94% 29.81 in 10.0 mi WSW 9.2 mph - N/A   Clear
7:15 AM 32.9 °F 25.9 °F 32.0 °F 96% 29.81 in 10.0 mi WSW 8.1 mph - N/A   Clear
7:35 AM 32.7 °F 25.7 °F 32.0 °F 97% 29.82 in 10.0 mi WSW 8.1 mph - N/A   Clear
7:55 AM 32.5 °F 25.5 °F 32.0 °F 98% 29.82 in 10.0 mi SW 8.1 mph - N/A   Clear
8:15 AM 33.3 °F 27.1 °F 32.0 °F 95% 29.83 in 10.0 mi WSW 6.9 mph - N/A   Clear
8:35 AM 35.2 °F 28.8 °F 32.4 °F 89% 29.84 in 10.0 mi WSW 8.1 mph - N/A   Clear
8:55 AM 36.5 °F 29.2 °F 32.7 °F 86% 29.85 in 10.0 mi West 10.4 mph - N/A   Clear
9:15 AM 37.4 °F 30.8 °F 33.1 °F 84% 29.85 in 10.0 mi West 9.2 mph - N/A   Clear
9:35 AM 39.0 °F 33.4 °F 33.3 °F 80% 29.86 in 10.0 mi West 8.1 mph - N/A   Clear
9:55 AM 40.5 °F 34.6 °F 33.3 °F 75% 29.86 in 10.0 mi West 9.2 mph - N/A   Clear
10:15 AM 41.9 °F 36.3 °F 33.3 °F 71% 29.87 in 10.0 mi West 9.2 mph - N/A   Clear
10:35 AM 43.2 °F 37.4 °F 33.4 °F 69% 29.87 in 10.0 mi West 10.4 mph - N/A   Clear
10:55 AM 44.4 °F 40.5 °F 33.4 °F 65% 29.86 in 10.0 mi WNW 6.9 mph - N/A   Clear
11:15 AM 45.3 °F 41.6 °F 33.6 °F 64% 29.87 in 10.0 mi WNW 6.9 mph - N/A   Scattered Clouds
11:35 AM 44.6 °F 40.7 °F 33.1 °F 64% 29.89 in 10.0 mi West 6.9 mph - N/A   Overcast
11:55 AM 45.5 °F 41.3 °F 33.4 °F 63% 29.89 in 10.0 mi West 8.1 mph - N/A   Overcast
12:15 PM 45.3 °F 43.0 °F 33.1 °F 62% 29.89 in 10.0 mi West 4.6 mph - N/A   Overcast
12:35 PM 45.7 °F 42.7 °F 33.3 °F 62% 29.88 in 10.0 mi WNW 5.8 mph - N/A   Overcast
12:55 PM 46.9 °F - 32.4 °F 57% 29.87 in 10.0 mi West 3.5 mph - N/A   Overcast
1:15 PM 48.2 °F - 31.8 °F 53% 29.86 in 10.0 mi NNW 4.6 mph - N/A   Scattered Clouds
1:35 PM 47.8 °F - 30.9 °F 52% 29.86 in 10.0 mi WSW 5.8 mph - N/A   Clear
1:55 PM 49.5 °F - 30.7 °F 49% 29.86 in 10.0 mi West 4.6 mph - N/A   Clear
2:15 PM 48.2 °F - 30.0 °F 49% 29.85 in 10.0 mi Calm Calm - N/A   Clear
2:55 PM 48.2 °F - 30.2 °F 50% 29.87 in 10.0 mi NW 3.5 mph - N/A   Scattered Clouds
3:15 PM 47.7 °F - 32.0 °F 55% 29.87 in 10.0 mi NW 5.8 mph - N/A   Mostly Cloudy
3:35 PM 46.9 °F - 33.4 °F 59% 29.88 in 10.0 mi WNW 5.8 mph - N/A   Overcast
3:55 PM 46.4 °F 42.4 °F 34.3 °F 63% 29.89 in 10.0 mi NW 8.1 mph - N/A   Overcast
4:15 PM 45.7 °F 39.5 °F 33.8 °F 63% 29.90 in 10.0 mi NW 13.8 mph 17.3 mph N/A   Overcast
4:35 PM 43.5 °F 37.9 °F 36.5 °F 76% 29.93 in 10.0 mi NW 10.4 mph 16.1 mph N/A   Overcast
4:55 PM 41.4 °F 36.8 °F 37.6 °F 86% 29.95 in 7.0 mi West 6.9 mph - N/A   Overcast
5:15 PM 40.3 °F 34.9 °F 37.4 °F 89% 29.95 in 7.0 mi SW 8.1 mph - 0.02 in   Overcast
5:35 PM 39.7 °F 34.9 °F 37.8 °F 93% 29.95 in 7.0 mi SW 6.9 mph - 0.03 in   Overcast
5:55 PM 39.0 °F 34.0 °F 38.3 °F 97% 29.95 in 10.0 mi SSW 6.9 mph - 0.04 in   Overcast
6:15 PM 38.5 °F 34.1 °F 38.3 °F 99% 29.95 in 10.0 mi SW 5.8 mph - N/A   Overcast
6:35 PM 37.9 °F 33.5 °F 37.9 °F 100% 29.96 in 10.0 mi SW 5.8 mph - N/A   Overcast
6:55 PM 37.8 °F 33.3 °F 37.8 °F 100% 29.97 in 10.0 mi SW 5.8 mph - N/A   Overcast
7:15 PM 37.8 °F 33.3 °F 37.8 °F 100% 29.99 in 10.0 mi SSW 5.8 mph - N/A   Overcast
7:35 PM 37.8 °F 35.3 °F 37.8 °F 100% 30.00 in 10.0 mi WSW 3.5 mph - N/A   Overcast
7:55 PM 37.8 °F 33.3 °F 37.8 °F 100% 30.00 in 10.0 mi SW 5.8 mph - N/A   Overcast
8:15 PM 37.8 °F 33.3 °F 37.8 °F 100% 30.00 in 10.0 mi WSW 5.8 mph - N/A   Overcast
8:35 PM 37.8 °F 34.2 °F 37.8 °F 100% 30.01 in 10.0 mi WSW 4.6 mph - N/A   Overcast
8:55 PM 37.8 °F 33.3 °F 37.8 °F 100% 30.02 in 10.0 mi WSW 5.8 mph - N/A   Overcast
9:15 PM 37.8 °F 33.3 °F 37.8 °F 100% 30.03 in 10.0 mi WSW 5.8 mph - N/A   Overcast
9:35 PM 37.6 °F 35.1 °F 37.6 °F 100% 30.02 in 10.0 mi West 3.5 mph - N/A   Overcast
9:55 PM 37.6 °F 35.1 °F 37.6 °F 100% 30.03 in 10.0 mi West 3.5 mph - N/A   Overcast
10:15 PM 37.4 °F 34.9 °F 37.4 °F 100% 30.03 in 10.0 mi West 3.5 mph - N/A   Overcast
10:55 PM 37.4 °F 33.8 °F 37.4 °F 100% 30.05 in 10.0 mi West 4.6 mph - N/A   Overcast
11:15 PM 37.4 °F 33.8 °F 37.4 °F 100% 30.05 in 10.0 mi West 4.6 mph - N/A   Overcast
11:35 PM 37.4 °F 34.9 °F 37.4 °F 100% 30.06 in 10.0 mi WNW 3.5 mph - N/A   Overcast
11:55 PM 37.6 °F 35.1 °F 37.6 °F 100% 30.07 in 10.0 mi WNW 3.5 mph - N/A   Overcast